SNUSat 2
1 43782U 18099AA 20058.51466132 -.00000205 00000-0 -13436-4 0 9994
2 43782 97.7168 131.9469 0012587 188.0015 172.1007 14.95190003 67343
SnugLite
1 43784U 18099AC 20057.01783085 .00000691 00000-0 67913-4 0 9995
2 43784 97.7137 130.3318 0014676 201.4990 158.5617 14.95281216 67139
ITASat 1
1 43786U 18099AE 20058.82344834 .00000494 00000-0 49999-4 0 9997
2 43786 97.7187 132.4189 0014901 194.3926 165.6872 14.95267199 67401
EAGLET 1
1 43790U 18099AJ 20057.17102163 -.00000004 00000-0 48090-5 0 9996
2 43790 097.7181 130.9967 0012879 204.7843 155.2761 14.95646669066867
ESEO
1 43792U 18099AL 20058.44562756 -.00000384 00000-0 -29360-4 0 9997
2 43792 097.7152 132.1280 0012807 197.3115 162.7671 14.95571936067115
CSIM
1 43793U 18099AM 20057.91840306 -.00000014 00000-0 38872-5 0 9997
2 43793 097.7137 131.5345 0012907 196.4298 163.6507 14.95933247067011
Astrocast 0.1
1 43798U 18099AS 20058.51118603 -.00000333 00000-0 -24608-4 0 9993
2 43798 97.7170 132.3950 0012456 179.4174 180.7063 14.95824971 67365
JO-97
1 43803U 18099AX 20058.85049163 -.00000179 00000-0 -10943-4 0 9996
2 43803 097.7145 132.2924 0014851 195.5790 164.4975 14.95427381067408
Suomi 100
1 43804U 18099AY 20057.64618890 -.00000190 00000-0 -11980-4 0 9997
2 43804 097.7146 131.0995 0014791 199.7620 160.3030 14.95419991067232
Al Farabi 2
1 43805U 18099AZ 20058.83307101 .00000258 00000-0 28497-4 0 9994
2 43805 97.7152 132.3234 0014906 195.2162 164.8612 14.95523466 67418
PWSat 2
1 43814U 18099BJ 20058.92925668 .00019577 00000-0 12920-2 0 9994
2 43814 097.7842 137.8898 0012635 183.7379 176.3599 15.07420674067041
CHOMPTT
1 43855U 18104G 20058.91369887 .00000959 00000-0 39086-4 0 9998
2 43855 085.0351 248.3110 0019953 096.9362 263.4150 15.22776392066704
ISAT
1 43879U 18111D 20058.81604137 .00000572 00000-0 55872-4 0 9993
2 43879 97.7088 327.9903 0011711 252.7217 107.2723 14.96158911 61938
UWE-4
1 43880U 18111E 20057.67712458 .00000361 00000-0 36990-4 0 9990
2 43880 097.7099 327.0812 0010930 257.8121 102.1876 14.96393085061772
Sparrow
1 43881U 18111F 20058.80032020 .00000005 00000-0 55175-5 0 9999
2 43881 097.7102 328.2430 0011190 252.6984 107.3014 14.96448768063947
Lume 1
1 43908U 18111AJ 20058.74289868 .00000779 00000-0 34062-4 0 9995
2 43908 97.2757 321.8863 0021554 169.9879 190.1793 15.24810498 65159
FO-98
1 43933U 19003B 20058.90652170 .00000513 00000-0 25387-4 0 9998
2 43933 97.2464 112.7888 0016094 270.9472 262.3210 15.21952781 61714
FO-99
1 43937U 19003F 20058.90691272 .00001040 00000-0 45390-4 0 9990
2 43937 97.2424 113.7269 0022599 253.5157 280.0535 15.24115482 61799
Delphini 1
1 44030U 98067PW 20057.47202752 .00012580 00000-0 14505-3 0 9998
2 44030 051.6355 161.4918 0004466 016.0491 344.0644 15.62348162060985
MYSat 1
1 44045U 18092F 20058.81015137 .00002425 00000-0 78701-4 0 9998
2 44045 51.6447 219.2890 0010631 282.3369 77.6402 15.36091431 58283
AstroCast 0.2
1 44083U 19018F 20058.80411293 .00000595 00000-0 29530-4 0 9993
2 44083 097.4357 121.3052 0012878 192.7276 167.3636 15.21450711050554
AISTechSat 3
1 44103U 19018AB 20058.73342795 .00000669 00000-0 31445-4 0 9998
2 44103 97.4229 121.3368 0012556 209.9396 245.2287 15.22984317 50588
AISat 1
1 44104U 19018AC 20058.45033514 .00000626 00000-0 22757-4 0 9993
2 44104 97.4768 127.3678 0056962 246.2809 113.2449 15.30859447 50824
Raavana-1
1 44329U 98067QE 20058.72232112 .00007541 00000-0 11432-3 0 9998
2 44329 51.6399 168.4122 0006348 312.4329 47.6125 15.55709237 39759
Uguisu
1 44330U 98067QF 20058.34440074 .00007337 00000-0 11169-3 0 9996
2 44330 051.6394 170.3854 0006306 309.2445 050.7986 15.55643644039677
NepaliSat-1
1 44331U 98067QG 20058.71678211 .00007634 00000-0 11551-3 0 9999
2 44331 51.6395 168.3750 0006404 313.5483 46.4976 15.55740349 39749
Prox-1
1 44339U 19036A 20058.27657276 .00000847 00000-0 15183-3 0 9999
2 44339 024.0027 091.3692 0011099 020.6940 339.4042 14.52855850035940
Oculus-ASR
1 44348U 19036K 20058.98854773 .00006359 00000-0 92733-4 0 9999
2 44348 028.5198 026.7055 0376188 211.0897 146.6911 15.00378633037187
Armadillo
1 44352U 19036P 20058.97286125 .00008394 00000-0 12417-3 0 9994
2 44352 028.5350 024.9044 0367531 213.4899 144.1941 15.02159597037151
NO-104
1 44354U 19036R 20057.26290528 .00006425 00000-0 92881-4 0 9996
2 44354 028.5328 036.2758 0372972 194.6339 164.3192 15.01248448036930
NO-103
1 44355U 19036S 20057.93599930 .00011711 00000-0 16875-3 0 9992
2 44355 028.5335 028.1041 0359336 207.9506 150.1349 15.04654979037073
CP9
1 44360U 19036X 20058.92803451 .00019560 00000-0 24946-3 0 9992
2 44360 028.5190 014.2198 0349057 231.0676 125.8257 15.09544483037173
Move-IIb
1 44398U 19038N 20058.84919350 .00000884 00000-0 54795-4 0 9997
2 44398 097.5232 021.6015 0026165 145.2787 215.0158 15.12070419035861
SONATE
1 44400U 19038Q 20058.86156631 .00000317 00000-0 22242-4 0 9991
2 44400 97.5259 21.6325 0026182 143.7734 216.5275 15.11841548 35866
BeeSat 9
1 44412U 19038AC 20058.83215796 .00000685 00000-0 43323-4 0 9990
2 44412 097.5248 021.6542 0023591 148.9350 211.3281 15.12106900035553
JAISAT-1
1 44419U 19038F 20058.88773219 .00000610 00000-0 38515-4 0 9996
2 44419 097.5250 021.8896 0022455 148.1017 212.1579 15.12589004035882
LightSail-2
1 44420U 19036AC 20058.43277904 .00005765 00000-0 12737-2 0 9999
2 44420 024.0111 088.7737 0018810 023.4121 336.7225 14.54577090034137
Taurus 1
1 44530U 19059C 20058.76840234 .00000992 00000-0 29487-3 0 9992
2 44530 98.5753 138.7925 0017692 130.9672 229.3045 14.45290642 24359
MO-106
1 44830U 19084G 20058.73444986 .00030057 00000-0 25417-3 0 9998
2 44830 096.9924 287.5114 0034561 302.0750 057.7158 15.68876927013044
TRSI-Sat
1 44831U 19084H 20058.54230948 .00029173 00000-0 24704-3 0 9994
2 44831 096.9933 287.3327 0034491 302.0928 057.6988 15.68851930013023
MO-105
1 44832U 19084J 20058.72226133 .00031442 00000-0 26191-3 0 9990
2 44832 96.9930 287.5330 0033935 301.0356 58.7576 15.69261226 13044
Duchifat 3
1 44854U 19089C 20058.32251223 .00000325 00000-0 32779-4 0 9999
2 44854 36.9692 35.0718 0008739 249.1979 110.7816 14.98979867 11615
OPS-SAT
1 44878U 19092F 20058.63400221 -.00000066 00000-0 00000-0 0 9998
2 44878 097.4645 243.8112 0014713 026.7341 333.4708 15.15277953010754
FloripaSat 1
1 44885U 19093G 20058.93341061 .00000206 00000-0 32784-4 0 9999
2 44885 097.9676 135.7378 0015777 051.7578 308.5036 14.81974401010330
SwampSat-2
1 45115U 19071E 20058.86642190 .00008111 00000-0 25979-3 0 9991
2 45115 51.6423 177.5703 0013241 21.2036 338.9492 15.33200997 4140
HuskySat-1
1 45119U 19071J 20058.60299922 .00001408 00000-0 54836-4 0 9995
2 45119 051.6436 178.8112 0012506 017.4042 342.7366 15.33165786004119
QARMAN
1 45257U 98067RA 20058.83774715 .00003608 00000-0 71353-4 0 9990
2 45257 051.6419 174.4282 0008229 314.9584 045.0737 15.49921263001340
AztechSat-1
1 45258U 98067RB 20058.77332360 .00002964 00000-0 60125-4 0 9999
2 45258 051.6416 174.7475 0006098 295.9293 064.1067 15.49888807001302
